Flag for Guinea Weather past 2 weeks in Nzérékoré, Guinea

Now
90 °F

Partly sunny.


Feels Like: 103 °F
Forecast: N/A
Wind: 6 mph from Southwest

Location: Roberts Field

Current Time: Jun 3, 2015 at 4:00:23 PM

Latest Report: Jun 3, 2015 at 3:30 PM


Visibility: N/A

Pressure: 29.89 "Hg

Humidity: 67%

Dew point: 77 °F

Location of NzérékoréLocation

Historic Weather in Nzérékoré — Graph

°F

Nzérékoré temperature yesterday

Maximum temperature yesterday: 84 °F (at 1:00 PM)
Minimum temperature yesterday: 77 °F (at 12:00 AM)
Average temperature yesterday: 79 °F

Past Weeks' High & Low Weather Summary

 TemperatureHumidityPressure
High90 °F (May 20, 11:00 AM)100% (May 24, 6:30 AM)29.98 "Hg (May 24, 6:30 AM)
Low72 °F (May 24, 6:30 AM)66% (May 23, 1:30 PM)29.83 "Hg (May 20, 3:00 PM)
Average80 °F87%29.90 "Hg
* Reported May 20 12:01 AM — Jun 3 3:00 PM, Nzérékoré, Weather by CustomWeather, © 2015

Note: Actual official high and low records may vary slightly from our data, if they occured in-between our weather recording intervals... More about our weather records

Advertising

Nzérékoré weather history for previous 24 hours

 ConditionsComfort  
Time TempWeatherWind HumidityBarometerVisibility
3:00 PM
Wed, Jun 3
88 °FPartly sunny.6 mph66%29.89 "HgN/A
2:30 PM86 °FPartly sunny.3 mph75%29.92 "HgN/A
2:00 PM84 °FPartly sunny.9 mph74%29.92 "HgN/A
1:30 PM84 °FPartly sunny.6 mph74%29.95 "HgN/A
1:00 PM86 °FPartly sunny.No wind75%29.95 "HgN/A
12:30 PM84 °FPartly sunny.No wind74%29.95 "HgN/A
12:00 PM84 °FWarm.No wind74%29.95 "HgN/A
11:30 AM86 °FWarm.No wind75%29.95 "HgN/A
11:00 AM84 °FScattered clouds.3 mph79%29.95 "HgN/A
10:30 AM82 °FBroken clouds.5 mph79%29.98 "HgN/A
10:00 AM81 °FBroken clouds.3 mph84%29.98 "HgN/A
9:30 AM81 °FBroken clouds.3 mph84%29.98 "HgN/A
9:00 AM81 °FBroken clouds.No wind84%29.95 "HgN/A
8:30 AM79 °FBroken clouds.No wind94%29.92 "HgN/A
8:00 AM77 °FBroken clouds.No wind94%29.92 "HgN/A
7:30 AM75 °FBroken clouds.No wind94%29.92 "HgN/A
7:00 AM75 °FPassing clouds.No wind94%29.92 "HgN/A
6:30 AM75 °FPassing clouds.6 mph94%29.92 "HgN/A
6:00 AM75 °FPassing clouds.No wind94%29.92 "HgN/A
5:30 AM75 °FRain. Passing clouds.No wind94%29.92 "HgN/A
5:00 AM75 °FLight rain. Passing clouds.No wind94%29.89 "Hg6 mi
4:30 AM75 °FPassing clouds.No wind94%29.89 "HgN/A
4:00 AM75 °FPassing clouds.No wind94%29.89 "HgN/A
3:00 AM75 °FPassing clouds.No wind94%29.89 "Hg6 mi
2:30 AM75 °FLight rain. Passing clouds.No wind94%29.89 "Hg6 mi
2:00 AM75 °FLight rain. Passing clouds.No wind94%29.92 "Hg5 mi
1:30 AM75 °FLight rain. Passing clouds.3 mph94%29.92 "Hg5 mi
1:00 AM77 °FLight rain. Passing clouds.6 mph94%29.95 "Hg5 mi
12:30 AM77 °FLight rain. Passing clouds.No wind94%29.95 "Hg5 mi
12:00 AM77 °FPassing clouds.No wind94%29.95 "HgN/A
10:00 PM
Tue, Jun 2
77 °FThunderstorms. Passing clouds.No wind94%29.95 "Hg5 mi
9:30 PM77 °FThunderstorms. Passing clouds.No wind94%29.95 "Hg4 mi
9:00 PM77 °FThunderstorms. Passing clouds.No wind94%29.95 "Hg4 mi
8:30 PM77 °FThunderstorms. Mostly cloudy.No wind94%29.92 "Hg4 mi
8:00 PM77 °FThunderstorms. Mostly cloudy.8 mph94%29.92 "Hg2 mi
7:00 PM79 °FDrizzle. Low clouds.No wind94%29.86 "Hg5 mi
6:30 PM79 °FDrizzle. Low clouds.6 mph94%29.86 "Hg5 mi
6:00 PM79 °FDrizzle. Low clouds.9 mph94%29.86 "Hg5 mi
5:30 PM81 °FPartly sunny.7 mph89%29.83 "HgN/A
5:00 PM81 °FPartly sunny.6 mph89%29.83 "HgN/A
4:30 PM81 °FPartly sunny.7 mph94%29.83 "HgN/A
4:00 PM81 °FDrizzle. Partly sunny.6 mph84%29.83 "Hg5 mi
Weather by CustomWeather, © 2015

See weather overviewHow to use our weather pages